Location: Logan
(41.7360°N, 111.8340°W)
Time: 19:39:42
(UTC-06:00)

Daily predictions for brighter satellites

Satellite Brightness Start Highest point End
(mag) Time Altitude Azimuth Time Altitude Azimuth Time Altitude Azimuth
Cosmos 1452 Rocket 3.6 21:08:42 10° S 21:13:51 61° ESE 21:19:04 10° NNE
Cosmos 1190 Rocket 4.4 21:10:11 10° NNW 21:15:21 67° WSW 21:20:30 10° S
CENTAUR R/B 4.3 21:08:41 10° NW 21:15:57 40° WSW 21:23:30 10° S
Cosmos 1674 Rocket 3.6 21:12:19 10° N 21:16:47 86° E 21:21:12 10° S
CZ-2D R/B 4.2 21:17:39 10° S 21:21:22 50° W 21:25:06 10° NNW
Cosmos 2297 4.4 21:21:53 10° SSE 21:26:52 32° ESE 21:31:54 10° NE
Cosmos 1606 2.7 21:25:11 10° N 21:29:08 72° E 21:33:02 10° SSE
Okean 2 Rocket 3.8 21:26:34 10° SSE 21:30:30 33° E 21:34:27 10° NNE
Cosmos 2084 3.8 21:28:29 10° SW 21:32:18 62° NW 21:36:07 10° NNE
CZ-4 DEB 2.9 21:30:04 10° S 21:33:13 76° WSW 21:36:23 10° NNW
Cosmos 1782 Rocket 3.9 21:30:50 10° SSE 21:35:06 46° E 21:39:23 10° NNE
Cosmos 1242 Rocket 3.5 21:32:38 10° N 21:36:00 32° ENE 21:38:59 12° SE
USA 186 3.5 21:33:50 10° SSW 21:36:47 34° W 21:39:52 10° NNW
Intercosmos 25 4.1 21:37:34 10° SSE 21:40:18 23° E 21:42:55 10° NE
COS B Rocket 3.2 21:36:38 10° N 21:40:28 54° E 21:43:50 10° SSE
Cosmos 1862 3.3 21:39:20 10° S 21:43:25 85° E 21:47:30 10° N
GPS 2-05 Rocket1 4.0 21:41:12 10° WSW 21:44:32 31° S 21:46:55 16° SE
ALOS 4.0 21:40:30 10° SSW 21:44:42 33° W 21:48:56 10° NNW
Cosmos 1850 Rocket 4.3 21:39:57 10° N 21:45:10 52° ENE 21:49:45 13° SE
Sich 1 Rocket 4.2 21:41:05 10° SSW 21:45:37 62° W 21:50:11 10° N
YAOGAN 6 3.9 21:45:16 15° ESE 21:47:21 25° ENE 21:50:16 10° NNE
USA 229 DEB 4.3 21:41:35 10° NNW 21:48:29 50° NE 21:54:27 14° ESE
USA 229 4.3 21:41:41 10° NNW 21:48:34 50° NE 21:54:33 14° ESE
Lacrosse 5 rocket 2.7 21:46:06 10° SSE 21:48:39 17° ESE 21:51:09 10° E
EO 1 Delta rocket 4.1 21:43:07 10° NNE 21:48:55 65° E 21:53:43 10° S
Cosmos 1954 Rocket 4.2 21:43:55 10° NNW 21:49:08 73° WSW 21:54:21 10° S
Cosmos 1975 Rocket 3.1 21:44:58 10° N 21:49:16 60° E 21:53:20 11° SSE
Cosmos 1408 2.5 21:46:08 10° S 21:49:48 88° E 21:53:26 10° N
OAO 3 Rocket 4.1 21:45:35 10° SW 21:49:57 32° SSE 21:53:20 15° ESE
PSLV R/B 4.3 21:48:39 17° ESE 21:50:08 26° ENE 21:52:39 10° NNE
ARGOS 4.2 21:50:36 14° ESE 21:54:17 30° ENE 21:58:52 10° N
Nadezhda 3 Rocket 4.2 21:48:39 10° N 21:55:02 82° W 22:01:24 10° S
DNEPR-1 R/B 3.8 21:51:42 10° NW 21:57:06 88° WSW 22:00:37 17° SSE
Cosmos 1378 Rocket 3.8 21:52:50 10° NNW 21:57:08 69° W 22:01:26 10° S
CZ-4 SHROUD 4.1 21:56:08 20° ESE 21:57:37 32° ENE 22:00:25 10° N
Cosmos 2218 Rocket 4.5 21:53:09 10° SSE 21:59:06 43° E 22:05:05 10° NNE
Cosmos 1908 Rocket 4.3 21:55:09 10° SSW 21:59:28 55° W 22:03:52 10° N
Cosmos 1023 Rocket 4.5 21:55:53 10° NNW 22:01:01 85° WSW 22:05:37 13° SSE
Meteor 1-27 Rocket 4.3 21:56:25 10° NNW 22:01:51 57° W 22:07:13 10° S
Gbstr 26 Del rocket 4.4 22:01:07 10° NW 22:06:14 38° NNE 22:10:03 12° E
Cosmos 1741 Rocket 4.0 22:02:14 10° NNW 22:07:29 79° ENE 22:11:26 18° SSE
Nimbus 7 Rocket 4.4 22:07:17 10° NNE 22:13:16 85° ESE 22:19:17 10° SSW
Cosmos 1825 3.4 22:10:16 10° SSW 22:13:54 44° W 22:17:36 10° N
MetOp-A 4.1 22:12:40 17° SSE 22:16:48 77° ENE 22:22:10 10° N
deb Chang Zheng 4 4.0 22:14:21 10° N 22:18:44 65° WNW 22:23:08 10° SSW
Cosmos 614 Rocket 3.9 22:14:28 10° NNW 22:19:35 88° WSW 22:23:01 21° SSE
Envisat 3.5 22:15:25 10° S 22:20:25 59° W 22:25:27 10° NNW
SEDSat Delta rocket 4.3 22:18:12 10° SW 22:21:25 20° S 22:21:31 20° S
ISS -0.9 22:18:49 10° WNW 22:21:35 24° NNW 22:24:20 10° NE
Cosmos 1833 Rocket 2.8 22:17:59 10° NNW 22:23:35 64° ENE 22:26:48 26° SE
Terra 3.3 22:23:26 18° E 22:25:07 22° ENE 22:28:46 10° NNE
USA 245 3.5 22:23:58 32° SE 22:25:26 57° ENE 22:29:48 10° N
H-2A R/B 2.9 22:23:57 12° S 22:27:43 46° W 22:31:46 10° NNW
Abrixas 2.3 22:25:43 10° WSW 22:28:46 82° SSE 22:30:25 24° ENE
ERS-1 Rocket 4.5 22:24:44 10° SSW 22:29:15 33° W 22:33:47 10° NNW
SL-8 Rocket 4.0 22:23:44 10° S 22:30:00 89° E 22:36:16 10° N
Cosmos 1939 Rocket 4.4 22:27:14 10° SSW 22:30:43 31° W 22:34:15 10° NNW
Cosmos 2278 Rocket 3.7 22:26:45 10° SW 22:32:02 39° WNW 22:37:22 10° N
Cosmos 2151 Rocket 3.5 22:34:16 22° S 22:37:10 79° E 22:41:43 10° N
Timation 1 Rocket 4.3 22:34:21 10° SSW 22:40:17 65° ESE 22:46:14 10° NNE
Cosmos 1300 Rocket 4.2 22:41:48 34° ESE 22:42:23 36° E 22:46:28 10° NNE
Meteor 1-25 Rocket 4.3 22:40:49 22° S 22:44:37 68° E 22:50:24 10° NNE
CZ-4B R/B 3.3 22:40:27 10° NNE 22:45:23 77° ESE 22:48:15 24° S
Okean 1 3.8 22:41:56 10° N 22:45:50 42° ENE 22:46:23 39° E
SPOT 5 3.8 22:42:02 16° S 22:46:11 50° W 22:51:24 10° NNW
USA 234 4.3 22:41:41 10° ENE 22:45:22 23° ESE 22:45:22 23° ESE
Cosmos 1812 2.8 22:46:06 10° N 22:49:54 55° E 22:50:22 51° ESE
Okean 1 Rocket 3.6 22:51:03 38° ESE 22:51:24 39° E 22:55:33 10° NNE
Cosmos 2082 Rocket 2.5 22:46:06 10° NNW 22:51:43 61° WSW 22:54:41 28° S
Genesis I 4.1 22:56:02 34° ENE 22:56:02 34° ENE 22:58:46 10° NE
Lacrosse 5 1.9 22:53:12 10° SSW 22:58:10 56° SE 23:03:10 10° NE
Cosmos 864 Rocket 4.5 22:54:13 17° S 22:59:01 81° W 23:05:15 10° N
H-2A R/B 2.2 23:01:28 41° SE 23:03:09 62° ENE 23:08:22 10° N
CZ-3C R/B 4.2 22:55:04 10° WSW 23:04:06 16° SSW 23:06:05 15° SSW
Okean 1-7 Rocket 3.6 23:07:35 10° N 23:12:01 60° E 23:12:23 58° ESE
Cosmos 2366 rocket 4.4 23:06:49 13° SSW 23:12:21 61° W 23:18:39 10° N
Cosmos 1302 Rocket 4.0 23:12:31 51° SSE 23:13:29 59° ESE 23:18:41 10° NNE
BREEZE-M DEB (TANK) 3.6 23:09:34 10° WNW 23:17:34 38° SW 23:18:15 35° SSW
SPOT 1/Viking Rocket 4.4 23:16:35 26° SSW 23:19:02 43° W 23:24:01 10° NNW
ASTEX 1 3.4 23:18:38 10° NNE 23:23:34 60° E 23:23:57 58° ESE
Meteor 1-13 Rocket 4.3 23:18:50 10° N 23:24:48 74° ENE 23:26:19 51° SSE
CARTOSAT-1 3.4 23:26:57 80° S 23:27:11 88° WSW 23:31:31 10° NNW
Lacrosse 5 rocket 1.7 23:23:43 10° WSW 23:27:34 55° NW 23:31:16 10° NE
Iridium 4 Rocket 4.2 23:22:42 10° N 23:28:25 47° E 23:29:11 44° ESE
ARGOS 4.2 23:32:08 26° SW 23:34:23 37° W 23:39:20 10° NNW
Cosmos 2084 Rocket 4.3 23:33:03 10° NNW 23:36:30 36° NE 23:36:30 36° NE
Cosmos 2369 Rocket 2.3 23:37:36 52° ESE 23:37:36 52° ESE 23:42:54 10° NNE
Meteor 1-11 Rocket 3.7 23:38:45 59° S 23:39:54 79° E 23:45:40 10° NNE
IGS 5A 3.8 23:45:34 61° W 23:45:34 61° W 23:49:29 10° NNW
Cosmos 1000 Rocket 4.4 23:39:08 10° N 23:45:26 86° W 23:46:57 55° S
CZ-4C R/B 4.5 23:47:48 36° W 23:47:50 36° W 23:51:42 10° NNW
Cosmos 2239 Rocket 4.4 23:49:37 55° S 23:51:09 89° E 23:57:29 10° N
Gbstr 26 Del rocket 3.7 23:48:42 10° WNW 23:52:37 47° W 23:52:37 47° W
Cosmos 1892 Rocket 4.2 23:50:25 10° N 23:53:58 48° NE 23:53:58 48° NE
Cosmos 1400 Rocket 3.4 23:55:33 58° N 23:55:33 58° N 23:58:58 10° N
